When you browse on this site, cookies collect data to enhance your experience and personalize the content and advertising you see.
Visit our Privacy Policy to learn more. By continuing to use the site, you agree to this use of cookies and data.
  • En España
  • Lista de países
  • Para 7 días
  • Temperatura del agua
  • Mapa Satelital
  • El tiempo en el mapa
  • Informadores
  • user-avatar
    Iniciar sesión

    Tiempo cada hora Kadako

    Hoy, 19 Diciembre, Miércoles

    Tiempo Temperatura Precipitaciones Viento Presión Humedad
    00:00 +27°C° 0.1 mm 1 mps 731 mmHg 71%
    01:00 +27°C° 0.1 mm 1 mps 731 mmHg 75%
    02:00 +26°C° 0 mm 2 mps 731 mmHg 75%
    03:00 +26°C° 0 mm 1 mps 731 mmHg 77%
    04:00 +25°C° 0 mm 1 mps 730 mmHg 79%
    05:00 +25°C° 0 mm 1 mps 730 mmHg 81%
    06:00 +27°C° 0 mm 1 mps 730 mmHg 72%
    07:00 +30°C° 0 mm 1 mps 730 mmHg 62%
    08:00 +32°C° 0 mm 1 mps 731 mmHg 53%
    09:00 +34°C° 0 mm 1 mps 730 mmHg 46%
    10:00 +38°C° 0 mm 2 mps 730 mmHg 38%
    11:00 +40°C° 0 mm 2 mps 730 mmHg 31%
    12:00 +41°C° 0 mm 2 mps 729 mmHg 29%
    13:00 +42°C° 0 mm 2 mps 729 mmHg 27%
    14:00 +43°C° 0 mm 2 mps 728 mmHg 25%
    15:00 +42°C° 0 mm 2 mps 728 mmHg 28%
    16:00 +40°C° 0 mm 3 mps 728 mmHg 31%
    17:00 +39°C° 0 mm 3 mps 728 mmHg 34%
    18:00 +36°C° 0.5 mm 3 mps 729 mmHg 48%
    19:00 +33°C° 0.5 mm 4 mps 730 mmHg 62%
    20:00 +29°C° 0.5 mm 4 mps 730 mmHg 76%
    21:00 +28°C° 1.5 mm 3 mps 731 mmHg 81%
    22:00 +26°C° 1.5 mm 3 mps 732 mmHg 86%
    23:00 +25°C° 1.5 mm 3 mps 732 mmHg 91%

    Mañana, 20 Diciembre, Jueves

    Tiempo Temperatura Precipitaciones Viento Presión Humedad
    00:00 +25°C° 1.5 mm 3 mps 732 mmHg 92%
    01:00 +24°C° 1.5 mm 3 mps 732 mmHg 93%
    02:00 +24°C° 1.5 mm 2 mps 732 mmHg 94%
    03:00 +24°C° 0.9 mm 2 mps 733 mmHg 94%
    04:00 +23°C° 0.9 mm 2 mps 733 mmHg 94%
    05:00 +23°C° 0.9 mm 2 mps 733 mmHg 94%
    06:00 +23°C° 0.8 mm 2 mps 734 mmHg 93%
    07:00 +23°C° 0.8 mm 2 mps 734 mmHg 92%
    08:00 +23°C° 0.8 mm 2 mps 735 mmHg 91%
    09:00 +25°C° 0.1 mm 2 mps 735 mmHg 82%
    10:00 +26°C° 0.1 mm 2 mps 735 mmHg 74%
    11:00 +28°C° 0.1 mm 3 mps 735 mmHg 66%
    12:00 +28°C° 0.1 mm 3 mps 735 mmHg 67%
    13:00 +27°C° 0.1 mm 3 mps 734 mmHg 68%
    14:00 +27°C° 0.1 mm 3 mps 734 mmHg 69%
    15:00 +26°C° 0.3 mm 3 mps 734 mmHg 72%
    16:00 +26°C° 0.3 mm 2 mps 734 mmHg 74%
    17:00 +25°C° 0.3 mm 2 mps 734 mmHg 77%
    18:00 +25°C° 0.2 mm 2 mps 735 mmHg 80%
    19:00 +24°C° 0.2 mm 2 mps 735 mmHg 83%
    20:00 +23°C° 0.2 mm 2 mps 735 mmHg 86%
    21:00 +23°C° 0.1 mm 2 mps 736 mmHg 87%
    22:00 +23°C° 0.1 mm 2 mps 737 mmHg 88%
    23:00 +21°C° 0.1 mm 2 mps 738 mmHg 89%

    Pasado mañana, 21 Diciembre, Viernes

    Tiempo Temperatura Precipitaciones Viento Presión Humedad
    00:00 +21°C° 0.1 mm 2 mps 737 mmHg 89%
    01:00 +22°C° 0.1 mm 1 mps 737 mmHg 90%
    02:00 +22°C° 0.1 mm 1 mps 736 mmHg 90%
    03:00 +21°C° 0 mm 1 mps 736 mmHg 91%
    04:00 +21°C° 0 mm 1 mps 737 mmHg 92%
    05:00 +21°C° 0 mm 1 mps 737 mmHg 93%
    06:00 +22°C° 0 mm 1 mps 737 mmHg 86%
    07:00 +23°C° 0 mm 1 mps 737 mmHg 78%
    08:00 +25°C° 0 mm 2 mps 738 mmHg 71%
    09:00 +27°C° 0 mm 2 mps 737 mmHg 63%
    10:00 +29°C° 0 mm 2 mps 737 mmHg 55%
    11:00 +31°C° 0 mm 2 mps 737 mmHg 47%
    12:00 +31°C° 0 mm 2 mps 736 mmHg 45%
    13:00 +32°C° 0 mm 2 mps 735 mmHg 43%
    14:00 +34°C° 0 mm 2 mps 735 mmHg 42%
    15:00 +31°C° 0 mm 3 mps 734 mmHg 46%
    16:00 +30°C° 0 mm 3 mps 734 mmHg 51%
    17:00 +29°C° 0 mm 4 mps 733 mmHg 55%
    18:00 +27°C° 0 mm 3 mps 734 mmHg 63%
    19:00 +25°C° 0 mm 3 mps 734 mmHg 71%
    20:00 +24°C° 0 mm 2 mps 735 mmHg 79%
    21:00 +23°C° 0.1 mm 2 mps 735 mmHg 82%
    22:00 +23°C° 0.1 mm 1 mps 735 mmHg 85%
    23:00 +23°C° 0.1 mm 1 mps 735 mmHg 88%

    22 Diciembre, Sábado

    Tiempo Temperatura Precipitaciones Viento Presión Humedad
    00:00 +23°C° 0.1 mm 1 mps 735 mmHg 89%
    01:00 +22°C° 0.1 mm 1 mps 735 mmHg 90%
    02:00 +20°C° 0.1 mm 0 mps 735 mmHg 91%
    03:00 +20°C° 0 mm 0 mps 734 mmHg 92%
    04:00 +22°C° 0 mm 1 mps 734 mmHg 93%
    05:00 +22°C° 0 mm 1 mps 734 mmHg 94%
    06:00 +23°C° 0 mm 1 mps 734 mmHg 87%
    07:00 +24°C° 0 mm 1 mps 734 mmHg 81%
    08:00 +26°C° 0 mm 1 mps 734 mmHg 74%
    09:00 +28°C° 0 mm 2 mps 734 mmHg 67%
    10:00 +30°C° 0 mm 2 mps 733 mmHg 60%
    11:00 +32°C° 0 mm 2 mps 733 mmHg 52%
    12:00 +34°C° 0 mm 3 mps 732 mmHg 49%
    13:00 +35°C° 0 mm 3 mps 731 mmHg 45%
    14:00 +37°C° 0 mm 4 mps 730 mmHg 42%
    15:00 +36°C° 0.1 mm 4 mps 730 mmHg 45%
    16:00 +34°C° 0.1 mm 4 mps 729 mmHg 48%
    17:00 +33°C° 0.1 mm 5 mps 729 mmHg 52%
    18:00 +29°C° 1.4 mm 4 mps 730 mmHg 65%
    19:00 +26°C° 1.4 mm 4 mps 730 mmHg 79%
    20:00 +22°C° 1.4 mm 3 mps 731 mmHg 93%
    21:00 +23°C° 4.7 mm 2 mps 732 mmHg 94%
    22:00 +23°C° 4.7 mm 2 mps 733 mmHg 96%
    23:00 +23°C° 4.7 mm 1 mps 733 mmHg 97%

    23 Diciembre, Domingo

    Tiempo Temperatura Precipitaciones Viento Presión Humedad
    00:00 +23°C° 0.4 mm 1 mps 733 mmHg 97%
    01:00 +23°C° 0.4 mm 1 mps 733 mmHg 97%
    02:00 +23°C° 0.4 mm 1 mps 733 mmHg 97%
    03:00 +23°C° 0.2 mm 1 mps 733 mmHg 97%
    04:00 +23°C° 0.2 mm 1 mps 733 mmHg 97%
    05:00 +23°C° 0.2 mm 1 mps 733 mmHg 97%
    06:00 +23°C° 0.2 mm 1 mps 733 mmHg 96%
    07:00 +24°C° 0.2 mm 1 mps 734 mmHg 94%
    08:00 +22°C° 0.2 mm 0 mps 734 mmHg 93%
    09:00 +25°C° 0.1 mm 1 mps 733 mmHg 89%
    10:00 +26°C° 0.1 mm 1 mps 733 mmHg 85%
    11:00 +27°C° 0.1 mm 1 mps 733 mmHg 81%
    12:00 +27°C° 0.1 mm 1 mps 732 mmHg 77%
    13:00 +28°C° 0.1 mm 1 mps 732 mmHg 74%
    14:00 +29°C° 0.1 mm 2 mps 732 mmHg 70%
    15:00 +28°C° 0.1 mm 2 mps 731 mmHg 74%
    16:00 +27°C° 0.1 mm 2 mps 731 mmHg 78%
    17:00 +26°C° 0.1 mm 2 mps 731 mmHg 81%
    18:00 +26°C° 0.1 mm 2 mps 732 mmHg 85%
    19:00 +25°C° 0.1 mm 2 mps 732 mmHg 88%
    20:00 +24°C° 0.1 mm 2 mps 732 mmHg 91%
    21:00 +24°C° 0.2 mm 2 mps 733 mmHg 92%
    22:00 +24°C° 0.2 mm 1 mps 733 mmHg 93%
    23:00 +23°C° 0.2 mm 1 mps 733 mmHg 94%

    24 Diciembre, Lunes

    Tiempo Temperatura Precipitaciones Viento Presión Humedad
    00:00 +23°C° 0.1 mm 1 mps 733 mmHg 95%
    01:00 +23°C° 0.1 mm 1 mps 732 mmHg 95%
    02:00 +23°C° 0.1 mm 1 mps 732 mmHg 95%
    03:00 +23°C° 0.1 mm 1 mps 732 mmHg 96%
    04:00 +23°C° 0.1 mm 1 mps 732 mmHg 96%
    05:00 +21°C° 0.1 mm 0 mps 732 mmHg 96%
    06:00 +23°C° 0.1 mm 1 mps 732 mmHg 94%
    07:00 +24°C° 0.1 mm 1 mps 733 mmHg 91%
    08:00 +25°C° 0.1 mm 1 mps 733 mmHg 88%
    09:00 +26°C° 0.2 mm 1 mps 733 mmHg 82%
    10:00 +27°C° 0.2 mm 1 mps 733 mmHg 76%
    11:00 +29°C° 0.2 mm 1 mps 732 mmHg 70%
    12:00 +30°C° 0.1 mm 2 mps 732 mmHg 66%
    13:00 +31°C° 0.1 mm 2 mps 731 mmHg 61%
    14:00 +32°C° 0.1 mm 2 mps 731 mmHg 57%
    15:00 +31°C° 0.1 mm 2 mps 731 mmHg 61%
    16:00 +30°C° 0.1 mm 3 mps 730 mmHg 65%
    17:00 +29°C° 0.1 mm 3 mps 730 mmHg 68%
    18:00 +28°C° 1.2 mm 2 mps 731 mmHg 76%
    19:00 +26°C° 1.2 mm 2 mps 732 mmHg 84%
    20:00 +25°C° 1.2 mm 1 mps 732 mmHg 92%
    21:00 +24°C° 0.7 mm 1 mps 733 mmHg 94%
    22:00 +24°C° 0.7 mm 1 mps 733 mmHg 95%
    23:00 +24°C° 0.7 mm 1 mps 733 mmHg 96%
    Mostrar más